Date,TemperatureHighF,TemperatureAvgF,TemperatureLowF,DewpointHighF,DewpointAvgF,DewpointLowF,HumidityHigh,HumidityAvg,HumidityLow,PressureMaxIn,PressureMinIn,WindSpeedMaxMPH,WindSpeedAvgMPH,GustSpeedMaxMPH,PrecipitationSumIn
2013-4-1,79.2,68.5,60.9,60.8,57.6,55.2,85,70,48,30.12,30.01,2,0,8,0.00
2013-4-2,86.5,68.9,55.7,59.4,53.8,46.0,92,65,26,30.08,29.96,4,0,11,0.00
2013-4-3,73.5,64.4,60.1,61.9,58.0,55.2,87,80,62,30.30,30.08,6,1,14,0.07
2013-4-4,69.8,63.1,57.8,62.0,58.2,54.2,90,84,71,30.45,30.31,6,0,13,0.07
2013-4-5,75.8,64.4,54.5,62.0,56.1,51.1,94,77,42,30.49,30.38,6,1,14,0.00
2013-4-6,76.3,63.9,54.5,60.0,55.7,51.6,92,77,45,30.43,30.26,6,1,18,0.00
2013-4-7,76.5,64.5,55.9,61.3,57.1,53.3,92,79,50,30.33,30.20,1,0,8,0.01
2013-4-8,58.1,55.6,53.8,54.9,52.7,51.2,91,90,89,30.28,30.26,0,0,0,0.00
2013-4-9,76.8,63.4,53.2,61.4,55.9,50.3,92,78,51,30.37,30.26,4,0,13,0.07
2013-4-10,77.2,64.2,53.3,61.0,56.1,50.7,93,77,46,30.33,30.19,3,0,12,0.01
2013-4-11,80.5,65.0,51.3,59.6,52.9,42.3,93,70,27,30.30,30.20,2,0,8,0.00
2013-4-12,79.2,65.3,53.2,61.2,55.6,50.4,92,74,43,30.36,30.22,4,0,12,0.00
2013-4-13,80.1,66.4,54.5,61.6,56.1,50.8,92,73,38,30.24,30.03,1,0,6,0.00
2013-4-14,85.7,67.7,53.6,59.5,53.4,47.5,92,66,27,30.04,29.90,1,0,6,0.00
2013-4-15,88.4,69.2,53.3,60.1,52.1,48.2,90,61,26,29.93,29.78,3,0,11,0.00
2013-4-23,77.7,61.3,46.8,51.2,46.5,43.2,90,63,30,30.07,29.94,2,0,10,0.00
2013-4-24,77.0,59.4,46.0,49.8,45.2,38.8,91,65,27,30.18,30.04,2,0,10,0.00
2013-4-25,76.0,58.3,46.8,47.1,44.7,40.5,88,65,28,30.27,30.16,1,0,8,0.00
2013-4-26,80.1,59.5,42.9,48.2,43.9,39.5,89,62,25,30.33,30.17,2,0,10,0.00
2013-4-27,81.6,60.1,44.8,53.4,47.5,41.5,90,67,29,30.28,30.10,1,0,5,0.00
2013-4-28,85.1,64.2,49.1,48.1,45.1,38.1,89,57,20,30.20,30.08,2,0,16,0.00
2013-4-29,88.4,65.3,47.3,61.1,46.5,38.0,88,59,18,30.28,30.17,1,0,7,0.00
2013-4-30,77.7,65.2,53.9,63.3,58.0,51.0,92,79,52,30.35,30.20,3,0,10,0.00